Airfield :
LOGIN :

Register | Disclaimer

   EN    FR    IT 

 










Legend :    VFR   Marginal VFR   IFR   Intensive IFR   Very Intensive IFR
Visi :
Ceiling :
>= 8 km
>= 3000ft
5 to 8 km
1000 to 3000 ft
1500m to 5 km
500 to 1000 ft
800 to 1500m
200 to 500 ft
< 800m
< 200 ft
Symbols :   Thunderstorms  Fog  Heavy snow  Heavy precipitations  Wind > 20 kt
SIGMETs :     Misc.  Thunderstorms  Icing  Turbulence  Mountain Waves  Volcanic Ashes







- Airport Elevation : 348 ft
- IATA code : LDV
- Download approach charts


LFRJ - Landivisiau

CURRENT METAR :
  • 170800Z AUTO 08007KT 0400 0350 R26/0800U R08/0550N FG VV/// 08/08 Q1020

EXPIRED METARs :
  • 170730Z AUTO 07007KT 0400 0350 R26/0550N R08/0500N FG VV/// 08/07 Q1019
  • 170700Z AUTO 07006KT 0700 0450 R26/0600D R08/0600U -RA FG VV/// 08/07 Q1019
  • 170630Z AUTO 08007KT 3900 0600 R26/P2000 R08/0700N BCFG VV/// 08/08 Q1019
  • 170600Z AUTO 08008KT 1100 0650 R26/1300D R08/1300D BCFG VV/// 08/08 Q1019
  • 170530Z AUTO 08010KT 7000 NSC 09/08 Q1019

Expired Forecast.
No reported NOTAMs for that airfield.



MET'MAP, your aeronautical weather chart ! - Copyright ORBIFLY December 2007 - Disclaimer

ORBIFLY MET'MAP TEAM :

Programming & Development : Alexandra Zaïnal
Concept & Development : Baudouin d'Aumeries
Co-Development & Prog : Marc-Olivier Méhu
Technical & hardware support : Manuel Goepfert

Contact : metmap@orbifly.com




SOURCES & CREDITS :

   NOAA